Location: Newark
(47.9161°N, 122.3031°W)
Time: 17:28:44
(UTC+00:00)

Envisat - Visible Passes

Search period start: 15 November 2019 00:00
Search period end: 25 November 2019 00:00
Orbit: 764 x 766 km, 98.1° (Epoch: 14 November)

Date Brightness Start Highest point End Pass type
(mag) Time Alt. Az. Time Alt. Az. Time Alt. Az.
15 Nov 3.3 01:25:34 10° SE 01:30:22 45° ENE 01:35:12 10° N visible
15 Nov 5.1 03:05:19 10° SSW 03:09:35 27° W 03:13:53 10° NW visible
15 Nov 6.3 13:33:02 10° ENE 13:34:47 12° E 13:36:31 10° ESE visible
16 Nov 3.7 02:27:36 10° S 02:32:35 55° W 02:37:35 10° NNW visible
16 Nov 4.6 14:32:55 10° NNE 14:37:43 40° E 14:42:28 10° SSE visible
17 Nov 2.9 01:50:43 10° SSE 01:55:46 74° ENE 02:00:52 10° N visible
17 Nov 5.8 03:32:13 10° SW 03:35:22 16° W 03:38:31 10° NW visible
17 Nov 5.9 13:56:56 10° NE 14:00:38 20° E 14:04:18 10° SE visible
18 Nov 3.5 01:14:32 10° SE 01:19:10 37° ENE 01:23:49 10° N visible
18 Nov 4.7 02:53:40 10° SSW 02:58:13 33° W 03:02:49 10° NNW visible
19 Nov 3.3 02:16:14 10° S 02:21:17 68° WSW 02:26:22 10° NNW visible
19 Nov 5.0 14:21:48 10° NNE 14:26:22 32° E 14:30:54 10° SSE visible
20 Nov 3.0 01:39:33 10° SSE 01:44:32 60° ENE 01:49:33 10° N visible
20 Nov 5.5 03:20:15 10° SW 03:23:57 20° W 03:27:42 10° NW visible
20 Nov 6.0 13:46:08 10° NE 13:49:13 16° E 13:52:18 10° SE visible
21 Nov 3.7 01:03:35 10° SE 01:07:59 30° ENE 01:12:23 10° N visible
21 Nov 4.3 02:42:06 10° SSW 02:46:53 41° W 02:51:41 10° NNW visible
21 Nov 4.0 14:47:01 10° NNE 14:52:01 54° E 14:56:59 10° S visible
22 Nov 3.0 02:04:54 10° SSE 02:09:59 84° WSW 02:15:07 10° NNW visible
22 Nov 6.1 03:47:56 10° WSW 03:49:48 12° W 03:51:40 10° WNW visible
22 Nov 5.4 14:10:44 10° NE 14:15:00 26° E 14:19:15 10° SSE visible
23 Nov 3.2 01:28:26 10° SE 01:33:18 48° ENE 01:38:12 10° N visible
23 Nov 5.2 03:08:26 10° SSW 03:12:34 25° W 03:16:43 10° NW visible
23 Nov 6.2 13:35:33 10° ENE 13:37:47 13° E 13:40:01 10° ESE visible
24 Nov 4.0 00:52:42 10° ESE 00:56:48 25° ENE 01:00:55 10° N visible
24 Nov 3.9 02:30:37 10° S 02:35:33 50° W 02:40:31 10° NNW visible
24 Nov 4.4 14:35:50 10° NNE 14:40:42 43° E 14:45:31 10° S visible
